| time (UTC) | temp C | wind direction | speed KPH | gust KPH | rain 1hr cm | rain 24hr cm | rain mn cm | humidity % | barometer mb |
| 20260504221205 | 12 | 167 | 0.0 | 0.0 | 0.00 | 0.00 | 0.00 | 76 | 1008.8 |
| 20260504220706 | 12 | 240 | 0.0 | 0.0 | 0.00 | 0.00 | 0.00 | 76 | 1008.8 |
| 20260504220156 | 12 | 302 | 0.0 | 0.0 | 0.00 | 0.00 | 0.00 | 76 | 1008.8 |
| 20260504215701 | 12 | 302 | 0.0 | 0.0 | 0.00 | 0.00 | 0.03 | 75 | 1009.2 |
| 20260504215206 | 12 | 302 | 0.0 | 0.0 | 0.00 | 0.00 | 0.03 | 75 | 1009.2 |
| 20260504214654 | 12 | 302 | 0.0 | 0.0 | 0.00 | 0.00 | 0.03 | 75 | 1009.2 |
| 20260504214203 | 12 | 302 | 1.6 | 0.0 | 0.00 | 0.00 | 0.03 | 75 | 1010.1 |
| 20260504213708 | 12 | 302 | 1.6 | 0.0 | 0.00 | 0.00 | 0.03 | 74 | 1010.1 |
| 20260504213157 | 13 | 300 | 0.0 | 0.0 | 0.00 | 0.00 | 0.03 | 73 | 1010.1 |
| 20260504212700 | 13 | 250 | 0.0 | 0.0 | 0.00 | 0.00 | 0.03 | 72 | 1010.1 |
| 20260504212211 | 13 | 250 | 0.0 | 0.0 | 0.00 | 0.00 | 0.03 | 72 | 1010.1 |
| 20260504211709 | 13 | 249 | 0.0 | 0.0 | 0.00 | 0.00 | 0.03 | 72 | 1010.1 |
| 20260504211212 | 13 | 249 | 0.0 | 0.0 | 0.00 | 0.00 | 0.03 | 72 | 1010.2 |
| 20260504210658 | 13 | 250 | 0.0 | 0.0 | 0.00 | 0.00 | 0.03 | 71 | 1010.2 |
| 20260504210201 | 13 | 250 | 0.0 | 0.0 | 0.00 | 0.00 | 0.03 | 71 | 1010.2 |
| 20260504205704 | 13 | 250 | 0.0 | 0.0 | 0.00 | 0.00 | 0.03 | 71 | 1010.1 |
| 20260504205201 | 13 | 249 | 0.0 | 0.0 | 0.00 | 0.00 | 0.03 | 71 | 1010.1 |
| 20260504204706 | 13 | 249 | 0.0 | 0.0 | 0.00 | 0.00 | 0.03 | 71 | 1010.1 |
| 20260504204209 | 14 | 249 | 1.6 | 0.0 | 0.00 | 0.00 | 0.03 | 71 | 1010.1 |
| 20260504203654 | 14 | 252 | 1.6 | 0.0 | 0.00 | 0.00 | 0.03 | 71 | 1010.1 |
| 20260504203203 | 14 | 84 | 0.0 | 0.0 | 0.00 | 0.00 | 0.03 | 70 | 1010.1 |
| 20260504202706 | 14 | 360 | 0.0 | 0.0 | 0.00 | 0.00 | 0.03 | 70 | 1010.3 |
| 20260504202209 | 14 | 84 | 0.0 | 0.0 | 0.00 | 0.00 | 0.03 | 70 | 1010.3 |
| 20260504201656 | 15 | 85 | 0.0 | 0.0 | 0.00 | 0.00 | 0.03 | 71 | 1010.3 |
| 20260504201157 | 15 | 83 | 0.0 | 0.0 | 0.00 | 0.00 | 0.03 | 70 | 1009.9 |
| 20260504200659 | 15 | 140 | 0.0 | 0.0 | 0.00 | 0.00 | 0.03 | 70 | 1009.9 |
| 20260504200204 | 15 | 85 | 0.0 | 0.0 | 0.00 | 0.00 | 0.03 | 69 | 1009.9 |
| 20260504195713 | 15 | 91 | 0.0 | 0.0 | 0.00 | 0.00 | 0.03 | 69 | 1010.5 |
| 20260504195154 | 15 | 91 | 1.6 | 0.0 | 0.00 | 0.00 | 0.03 | 69 | 1010.5 |
| 20260504194712 | 15 | 91 | 0.0 | 0.0 | 0.00 | 0.00 | 0.03 | 68 | 1010.5 |
| 20260504194157 | 15 | 62 | 0.0 | 0.0 | 0.00 | 0.00 | 0.03 | 67 | 1010.7 |
| 20260504193658 | 15 | 94 | 0.0 | 0.0 | 0.00 | 0.00 | 0.03 | 67 | 1010.7 |
| 20260504193204 | 15 | 106 | 0.0 | 0.0 | 0.00 | 0.00 | 0.03 | 67 | 1010.7 |
| 20260504192704 | 16 | 164 | 3.2 | 0.0 | 0.00 | 0.00 | 0.03 | 67 | 1010.6 |
| 20260504192155 | 16 | 100 | 4.8 | 0.0 | 0.00 | 0.00 | 0.03 | 66 | 1010.6 |
| 20260504191702 | 16 | 78 | 1.6 | 0.0 | 0.00 | 0.00 | 0.00 | 66 | 1010.6 |
| 20260504191207 | 16 | 360 | 0.0 | 0.0 | 0.00 | 0.00 | 0.00 | 65 | 1011.1 |
| 20260504190657 | 17 | 125 | 0.0 | 0.0 | 0.00 | 0.00 | 0.00 | 63 | 1011.1 |
| 20260504190155 | 17 | 173 | 0.0 | 0.0 | 0.00 | 0.00 | 0.00 | 63 | 1011.1 |
| 20260504185702 | 17 | 360 | 1.6 | 0.0 | 0.00 | 0.00 | 0.00 | 62 | 1010.6 |
| 20260504185152 | 17 | 181 | 3.2 | 0.0 | 0.00 | 0.00 | 0.00 | 60 | 1010.6 |
| 20260504184659 | 18 | 178 | 4.8 | 0.0 | 0.00 | 0.00 | 0.00 | 60 | 1010.6 |
| 20260504184204 | 18 | 170 | 4.8 | 0.0 | 0.00 | 0.00 | 0.00 | 58 | 1009.7 |
| 20260504183713 | 18 | 180 | 4.8 | 0.0 | 0.00 | 0.00 | 0.00 | 56 | 1009.7 |
| 20260504183203 | 19 | 144 | 3.2 | 0.0 | 0.00 | 0.00 | 0.00 | 53 | 1009.7 |
| 20260504182656 | 20 | 5 | 1.6 | 0.0 | 0.00 | 0.00 | 0.00 | 52 | 1009.3 |
| 20260504182201 | 20 | 159 | 0.0 | 0.0 | 0.00 | 0.00 | 0.00 | 52 | 1009.3 |
| 20260504181658 | 20 | 340 | 0.0 | 0.0 | 0.00 | 0.00 | 0.00 | 48 | 1009.3 |
| 20260504181201 | 20 | 341 | 0.0 | 0.0 | 0.00 | 0.00 | 0.00 | 47 | 1008.5 |
| 20260504180704 | 20 | 342 | 0.0 | 0.0 | 0.00 | 0.00 | 0.00 | 45 | 1008.5 |
| 20260504180202 | 20 | 342 | 0.0 | 0.0 | 0.00 | 0.00 | 0.00 | 45 | 1008.5 |
| 20260504175710 | 20 | 343 | 0.0 | 0.0 | 0.00 | 0.00 | 0.00 | 45 | 1008.4 |
| 20260504175213 | 20 | 343 | 0.0 | 0.0 | 0.00 | 0.00 | 0.00 | 45 | 1008.4 |
| 20260504174700 | 20 | 344 | 0.0 | 0.0 | 0.00 | 0.00 | 0.00 | 46 | 1008.4 |
| 20260504174201 | 20 | 343 | 0.0 | 0.0 | 0.00 | 0.00 | 0.00 | 46 | 1008.4 |
| 20260504173709 | 20 | 342 | 0.0 | 0.0 | 0.00 | 0.00 | 0.00 | 44 | 1008.4 |
| 20260504173212 | 20 | 342 | 0.0 | 0.0 | 0.00 | 0.00 | 0.00 | 45 | 1008.4 |
| 20260504172658 | 20 | 343 | 0.0 | 0.0 | 0.00 | 0.00 | 0.00 | 44 | 1009.2 |
| 20260504172200 | 20 | 343 | 0.0 | 0.0 | 0.00 | 0.00 | 0.00 | 43 | 1009.2 |
| 20260504171705 | 21 | 344 | 0.0 | 0.0 | 0.00 | 0.00 | 0.00 | 43 | 1009.2 |
| 20260504171155 | 21 | 344 | 0.0 | 0.0 | 0.00 | 0.00 | 0.00 | 45 | 1008.8 |
| 20260504170702 | 21 | 342 | 0.0 | 0.0 | 0.00 | 0.00 | 0.00 | 43 | 1008.8 |
| 20260504170207 | 21 | 346 | 0.0 | 0.0 | 0.00 | 0.00 | 0.00 | 43 | 1008.8 |
| 20260504160202 | 21 | 73 | 1.6 | 0.0 | 0.00 | 0.00 | 0.00 | 42 | 1008.7 |
| 20260504150657 | 22 | 63 | 1.6 | 0.0 | 0.00 | 0.00 | 0.00 | 40 | 1009.5 |
| 20260504150159 | 23 | 0.0 | 0.0 | 0.00 | 0.00 | 0.00 | 40 | 1009.5 | |
| 20260504141156 | 22 | 96 | 1.6 | 0.0 | 0.00 | 0.00 | 0.00 | 43 | 1009.2 |
| 20260504140655 | 22 | 9 | 1.6 | 0.0 | 0.00 | 0.00 | 0.00 | 42 | 1009.2 |
| 20260504140203 | 22 | 79 | 1.6 | 0.0 | 0.00 | 0.00 | 0.00 | 43 | 1009.2 |
| 20260504130652 | 21 | 360 | 1.6 | 0.0 | 0.00 | 0.00 | 0.00 | 43 | 1010.2 |
| 20260504130155 | 21 | 21 | 3.2 | 0.0 | 0.00 | 0.00 | 0.00 | 44 | 1010.2 |
| 20260504120156 | 21 | 25 | 1.6 | 0.0 | 0.00 | 0.00 | 0.00 | 44 | 1010.6 |
| 20260504110655 | 22 | 22 | 3.2 | 0.0 | 0.00 | 0.00 | 0.00 | 44 | 1011.0 |
| 20260504110158 | 21 | 90 | 3.2 | 0.0 | 0.00 | 0.00 | 0.00 | 44 | 1011.0 |
| 20260504100200 | 21 | 28 | 3.2 | 0.0 | 0.00 | 0.00 | 0.00 | 44 | 1011.6 |
| 20260504081703 | 18 | 71 | 0.0 | 0.0 | 0.00 | 0.00 | 0.00 | 49 | 1012.7 |
| 20260504081205 | 18 | 108 | 0.0 | 0.0 | 0.00 | 0.00 | 0.00 | 48 | 1012.6 |
| 20260504080707 | 18 | 74 | 0.0 | 0.0 | 0.00 | 0.00 | 0.00 | 50 | 1012.6 |
| 20260504080211 | 17 | 73 | 0.0 | 0.0 | 0.00 | 0.00 | 0.00 | 47 | 1012.6 |
| 20260504070157 | 16 | 125 | 0.0 | 0.0 | 0.00 | 0.00 | 0.00 | 56 | 1012.7 |
| 20260504060201 | 13 | 180 | 0.0 | 0.0 | 0.00 | 0.00 | 0.00 | 68 | 1012.8 |
| 20260504050659 | 10 | 192 | 0.0 | 0.0 | 0.00 | 0.00 | 0.00 | 76 | 1012.2 |
| 20260504050204 | 10 | 192 | 0.0 | 0.0 | 0.00 | 0.00 | 0.00 | 74 | 1012.2 |
| 20260504045715 | 10 | 193 | 0.0 | 0.0 | 0.00 | 0.00 | 0.00 | 74 | 1012.4 |
| 20260504045206 | 10 | 193 | 0.0 | 0.0 | 0.00 | 0.00 | 0.00 | 74 | 1012.4 |
| 20260504044705 | 9 | 193 | 0.0 | 0.0 | 0.00 | 0.00 | 0.00 | 74 | 1012.4 |
| 20260504044155 | 9 | 194 | 0.0 | 0.0 | 0.00 | 0.00 | 0.00 | 73 | 1012.3 |
| 20260504043704 | 9 | 210 | 0.0 | 0.0 | 0.00 | 0.00 | 0.00 | 70 | 1012.3 |
| 20260504043211 | 9 | 211 | 0.0 | 0.0 | 0.00 | 0.00 | 0.00 | 69 | 1012.3 |
| 20260504042700 | 10 | 360 | 0.0 | 0.0 | 0.00 | 0.00 | 0.00 | 68 | 1012.3 |
| 20260504042210 | 10 | 213 | 0.0 | 0.0 | 0.00 | 0.00 | 0.00 | 68 | 1012.3 |
| 20260504041656 | 10 | 212 | 0.0 | 0.0 | 0.00 | 0.00 | 0.00 | 68 | 1012.3 |
| 20260504041201 | 10 | 211 | 0.0 | 0.0 | 0.00 | 0.00 | 0.00 | 68 | 1012.9 |
| 20260504040654 | 10 | 212 | 0.0 | 0.0 | 0.00 | 0.00 | 0.00 | 68 | 1012.9 |
| 20260504040158 | 10 | 211 | 0.0 | 0.0 | 0.00 | 0.00 | 0.00 | 68 | 1012.9 |
| 20260504035703 | 10 | 212 | 0.0 | 0.0 | 0.00 | 0.00 | 0.00 | 68 | 1013.0 |
| 20260504035210 | 10 | 211 | 0.0 | 0.0 | 0.00 | 0.00 | 0.00 | 67 | 1013.0 |
| 20260504034701 | 10 | 211 | 0.0 | 0.0 | 0.00 | 0.00 | 0.00 | 67 | 1013.0 |
| 20260504034207 | 10 | 211 | 0.0 | 0.0 | 0.00 | 0.00 | 0.00 | 67 | 1013.0 |
| 20260504033710 | 11 | 211 | 0.0 | 0.0 | 0.00 | 0.00 | 0.00 | 67 | 1013.0 |
| 20260504033203 | 11 | 211 | 0.0 | 0.0 | 0.00 | 0.00 | 0.00 | 67 | 1013.0 |
| 20260504032705 | 11 | 211 | 0.0 | 0.0 | 0.00 | 0.00 | 0.00 | 67 | 1013.2 |
| 20260504032208 | 11 | 211 | 0.0 | 0.0 | 0.00 | 0.00 | 0.00 | 68 | 1013.2 |
| 20260504031702 | 11 | 212 | 0.0 | 0.0 | 0.00 | 0.00 | 0.00 | 67 | 1013.2 |
| 20260504031203 | 11 | 212 | 0.0 | 0.0 | 0.00 | 0.00 | 0.00 | 68 | 1012.3 |
| 20260504030706 | 11 | 212 | 0.0 | 0.0 | 0.00 | 0.00 | 0.00 | 68 | 1012.3 |
| 20260504030209 | 11 | 212 | 0.0 | 0.0 | 0.00 | 0.00 | 0.00 | 67 | 1012.3 |
| 20260504025704 | 11 | 212 | 0.0 | 0.0 | 0.00 | 0.00 | 0.00 | 68 | 1012.6 |
| 20260504025201 | 11 | 213 | 0.0 | 0.0 | 0.00 | 0.00 | 0.00 | 68 | 1012.6 |
| 20260504024658 | 11 | 213 | 0.0 | 0.0 | 0.00 | 0.00 | 0.00 | 67 | 1012.6 |
| 20260504024209 | 11 | 213 | 0.0 | 0.0 | 0.00 | 0.00 | 0.00 | 67 | 1012.6 |
| 20260504023712 | 11 | 213 | 0.0 | 0.0 | 0.00 | 0.00 | 0.00 | 67 | 1012.6 |
| 20260504023214 | 11 | 213 | 0.0 | 0.0 | 0.00 | 0.00 | 0.00 | 67 | 1012.6 |
| 20260504022700 | 11 | 213 | 0.0 | 0.0 | 0.00 | 0.00 | 0.00 | 66 | 1012.6 |
| 20260504022206 | 11 | 213 | 0.0 | 0.0 | 0.00 | 0.00 | 0.00 | 66 | 1012.6 |
| 20260504021709 | 11 | 213 | 0.0 | 0.0 | 0.00 | 0.00 | 0.00 | 66 | 1012.6 |
| 20260504021215 | 11 | 213 | 0.0 | 0.0 | 0.00 | 0.00 | 0.00 | 66 | 1013.4 |
| 20260504020201 | 11 | 360 | 0.0 | 0.0 | 0.00 | 0.00 | 0.00 | 66 | 1013.4 |
| 20260504015702 | 11 | 225 | 0.0 | 0.0 | 0.00 | 0.00 | 0.00 | 66 | 1013.3 |
| 20260504015205 | 11 | 213 | 0.0 | 0.0 | 0.00 | 0.00 | 0.00 | 65 | 1013.3 |
| 20260504014707 | 11 | 213 | 0.0 | 0.0 | 0.00 | 0.00 | 0.00 | 65 | 1013.3 |
| 20260504014206 | 11 | 213 | 0.0 | 0.0 | 0.00 | 0.00 | 0.00 | 65 | 1013.3 |
| 20260504013709 | 11 | 213 | 0.0 | 0.0 | 0.00 | 0.00 | 0.00 | 65 | 1013.3 |
| 20260504013213 | 11 | 244 | 0.0 | 0.0 | 0.00 | 0.00 | 0.00 | 65 | 1013.3 |
| 20260504012655 | 11 | 244 | 0.0 | 0.0 | 0.00 | 0.00 | 0.00 | 64 | 1013.3 |
| 20260504012158 | 11 | 360 | 0.0 | 0.0 | 0.00 | 0.00 | 0.00 | 64 | 1013.3 |
| 20260504011710 | 11 | 255 | 0.0 | 0.0 | 0.00 | 0.00 | 0.00 | 64 | 1013.3 |
| 20260504011156 | 11 | 244 | 0.0 | 0.0 | 0.00 | 0.00 | 0.00 | 64 | 1013.1 |
| 20260504010704 | 11 | 244 | 0.0 | 0.0 | 0.00 | 0.00 | 0.00 | 64 | 1013.1 |
| 20260504010211 | 11 | 244 | 0.0 | 0.0 | 0.00 | 0.00 | 0.00 | 64 | 1013.1 |
| 20260504005657 | 11 | 360 | 0.0 | 0.0 | 0.00 | 0.00 | 0.00 | 63 | 1013.2 |
| 20260504005156 | 11 | 244 | 0.0 | 0.0 | 0.00 | 0.00 | 0.00 | 62 | 1013.2 |
| 20260504004658 | 11 | 244 | 0.0 | 0.0 | 0.00 | 0.00 | 0.00 | 62 | 1013.2 |
| 20260504004203 | 11 | 244 | 0.0 | 0.0 | 0.00 | 0.00 | 0.00 | 61 | 1013.3 |
| 20260504003703 | 12 | 244 | 0.0 | 0.0 | 0.00 | 0.00 | 0.00 | 61 | 1013.3 |
| 20260504003207 | 12 | 244 | 0.0 | 0.0 | 0.00 | 0.00 | 0.00 | 61 | 1013.3 |
| 20260504002701 | 12 | 244 | 0.0 | 0.0 | 0.00 | 0.00 | 0.00 | 61 | 1013.6 |
| 20260504002209 | 12 | 244 | 0.0 | 0.0 | 0.00 | 0.00 | 0.00 | 61 | 1013.6 |
| 20260504001712 | 12 | 244 | 0.0 | 0.0 | 0.00 | 0.00 | 0.00 | 61 | 1013.6 |
| 20260504001158 | 12 | 244 | 0.0 | 0.0 | 0.00 | 0.00 | 0.00 | 61 | 1013.6 |
| 20260504000707 | 12 | 244 | 0.0 | 0.0 | 0.00 | 0.00 | 0.00 | 61 | 1013.6 |
| 20260504000209 | 12 | 244 | 0.0 | 0.0 | 0.00 | 0.00 | 0.00 | 61 | 1013.6 |
| 20260503235710 | 12 | 244 | 0.0 | 0.0 | 0.00 | 0.00 | 0.00 | 61 | 1013.6 |
| 20260503235215 | 12 | 244 | 0.0 | 0.0 | 0.00 | 0.00 | 0.00 | 60 | 1013.6 |
| 20260503234700 | 12 | 244 | 0.0 | 0.0 | 0.00 | 0.00 | 0.00 | 60 | 1013.6 |
| 20260503234205 | 12 | 244 | 0.0 | 0.0 | 0.00 | 0.00 | 0.00 | 60 | 1013.4 |
| 20260503233710 | 12 | 244 | 0.0 | 0.0 | 0.00 | 0.00 | 0.00 | 60 | 1013.4 |
| 20260503233206 | 13 | 244 | 0.0 | 0.0 | 0.00 | 0.00 | 0.00 | 60 | 1013.4 |
| 20260503232701 | 13 | 244 | 0.0 | 0.0 | 0.00 | 0.00 | 0.00 | 61 | 1013.0 |
| 20260503232200 | 13 | 273 | 0.0 | 0.0 | 0.00 | 0.00 | 0.00 | 61 | 1013.0 |
| 20260503231654 | 13 | 273 | 0.0 | 0.0 | 0.00 | 0.00 | 0.00 | 61 | 1013.0 |
| 20260503231207 | 13 | 266 | 0.0 | 0.0 | 0.00 | 0.00 | 0.00 | 61 | 1013.1 |
| 20260503230659 | 13 | 274 | 0.0 | 0.0 | 0.00 | 0.00 | 0.00 | 61 | 1013.1 |
| 20260503230209 | 13 | 274 | 0.0 | 0.0 | 0.00 | 0.00 | 0.00 | 62 | 1013.1 |
| 20260503225657 | 13 | 274 | 0.0 | 0.0 | 0.00 | 0.00 | 0.00 | 61 | 1013.0 |
| 20260503225201 | 13 | 273 | 1.6 | 0.0 | 0.00 | 0.00 | 0.00 | 61 | 1013.0 |
| 20260503224710 | 13 | 265 | 0.0 | 0.0 | 0.00 | 0.00 | 0.00 | 61 | 1013.0 |
| 20260503224158 | 13 | 264 | 0.0 | 0.0 | 0.00 | 0.00 | 0.00 | 60 | 1013.0 |
| 20260503223704 | 13 | 265 | 0.0 | 0.0 | 0.00 | 0.00 | 0.00 | 60 | 1013.0 |
| 20260503223209 | 13 | 264 | 0.0 | 0.0 | 0.00 | 0.00 | 0.00 | 60 | 1013.0 |
| 20260503222658 | 13 | 263 | 0.0 | 0.0 | 0.00 | 0.00 | 0.00 | 59 | 1012.7 |
| 20260503222212 | 14 | 269 | 0.0 | 0.0 | 0.00 | 0.00 | 0.00 | 59 | 1012.7 |
| 20260503221659 | 14 | 269 | 1.6 | 0.0 | 0.00 | 0.00 | 0.00 | 59 | 1012.7 |